Showing default

COSMOS 1168, 11735

Orbit data source: Space-Track

COSMOS 1168, 11735 is a payload satellite owned by VMF (CIS) in LEO that was launched on Mon, 17 Mar 1980 UTC via a KOSMOS 11K65M launch vehicle from the Plesetsk Missile And Space Complex (PKMTR). Payload-class satellites include a variety of spacecraft equipped with specific instruments for various scientific and technological missions. These include communications satellites like Starlink; space stations such as the ISS; scientific satellites like the Hubble; Earth observation satellites from companies like Planet Labs, Umbra, and HawkEye 360; GPS; miniature CubeSats for education and research; and military/defense satellites.

Loading next visibility...
Identifier
11735, 1980-022A
Orbit
LEO
Country
Flag of CISCIS
Related business
Manufacturer
Omsk Av. Zav.
Mission
Spacecraft
Bus & Motor
KAUR-1 11F643, Unknown motor
Mass
800 kg wet, 800 kg dry
Launch date (UTC)
1980-03-17 (46 years ago)
Launch vehicle
KOSMOS 11K65M
Launch site
Plesetsk Missile And Space Complex (PKMTR)
Object type
Payload
Rocket body
Debris
Shape & HBR
Unknown
Radar Cross Section
Large (>1 m²)

Expand to show TLE details & history
Last TLE update: 15 hours ago

TLE from 15 hours ago
0 COSMOS 1168
1 11735U 80022A   25287.92665214  .00000109  00000-0  98137-4 0  9990
2 11735  82.9421  96.1071 0034714 326.9705 197.7574 13.75222309286448
Epoch: 2025-10-14T22:14Z
TLE epoch observation values (Epoch: 2025-10-14T22:14:22.744Z)
Latitude
15.24989°
Longitude
-83.12007°
Altitude
1,007.431 km
Speed
7.337 km/s
True Right ascension
18h 16m 43s
True Declination
15° 09' 57"
Sunlit
Object was in daylight at epoch
Visualization orbit readout
Latitude
Unknown
Longitude
Unknown
Altitude
Unknown
Speed
Unknown
Apparent Right ascension
Unknown
Apparent Declination
Unknown
Sunlit
N/A
Visualization observer readout
Local Sidereal Time
08:10:38
Azimuth
Unknown
Elevation
Unknown
Doppler factor
Unknown
Orbital elements
Apogee altitude
1,003.566 km
Perigee altitude
952.494 km
Semi-major axis
7,356.167 km
Eccentricity
0.00347
Inclination
82.9421°
RAAN
96.1071°
Arg. of periapsis
326.9705°
True anomaly
197.63658°
Mean anomaly
197.7574°
Eccentric anomaly
197.69694°
Mean motion
3.44006 °/min
Orbital period
104.65 mins
BSTAR
0.000098137
Loading maneuver chart data...
Computing Atmospheric mass density...
Loading historical data...
Loading historical data...
Loading historical data...
Loading historical data...
Loading historical data...
Loading historical data...
Loading historical data...
Other satellites on launch #22 in the year 1980 (1980-03-17 UTC)

Documentation

Showing up to 5 results
|